SCP
0 0 0 0 0 0 0 0 0 0 0 0 0 0 0 0 0 0 0 0 0 0 0 0 0 0 0 0 0 0 0 0 0 1 0 0 0 0 0 0 0 0 0 0 0 0 0 0 0 0 0 0 1 0
0 0 0 0 0 0 0 0 0 0 0 0 0 0 0 0 0 0 0 0 0 0 0 0 0 0 0 0 0 0 0 0 0 0 1 1 1 0 0 0 0 0 0 0 0 0 0 0 -0 0 0 0 1 1
0 0 0 0 0 0 0 0 0 0 0 0 0 0 0 0 0 0 0 0 0 0 0 0 0 0 0 0 0 0 0 0 0 0 0 0 1 2 0 0 0 1 0 0 1 0 0 0 0 0 0 0 0 0
0 0 0 0 0 0 0 0 0 0 0 0 0 0 0 0 0 0 0 0 0 0 0 0 0 0 0 0 0 0 0 0 0 0 0 0 0 1 1 1 0 0 1 1 1 0 0 1 1 1 1 1 0 0
0 0 0 0 0 0 0 0 0 0 0 0 0 0 0 0 0 0 0 0 0 0 0 0 0 0 0 0 0 0 0 0 0 0 0 0 0 0 0 1 0 1 0 0 0 1 1 0 0 0 1 1 1 1
0 0 0 0 0 0 0 0 0 0 0 0 0 0 0 0 0 0 0 0 0 0 0 0 0 0 0 0 0 0 0 0 0 0 0 0 0 0 0 0 0 0 0 1 0 1 0 0 0 0 0 0 0 1
0 0 0 0 0 0 0 0 0 0 0 0 0 0 0 0 0 0 0 0 0 0 0 0 0 0 0 0 0 0 0 0 0 0 0 0 0 0 0 0 0 0 0 0 0 0 0 0 0 0 0 0 0 0
0 0 0 0 0 0 0 0 0 0 0 0 0 0 0 0 0 0 0 0 0 0 0 0 0 0 0 0 0 0 0 0 0 0 0 0 0 0 0 0 0 0 0 0 0 0 0 0 0 0 0 0 0 0
0 0 0 0 0 0 0 0 0 0 0 0 0 0 0 0 0 0 0 0 0 0 0 0 0 0 0 0 0 0 0 0 0 0 0 0 0 0 0 0 0 0 0 0 0 0 0 0 0 0 0 0 0 0
0 0 0 0 0 0 0 0 0 0 0 0 0 0 0 0 0 0 0 0 0 0 0 0 0 0 0 0 0 0 0 0 0 0 0 0 0 0 0 0 0 0 0 0 0 0 0 0 0 0 0 0 0 0
0 0 0 0 0 0 0 0 0 0 0 0 0 0 0 0 0 0 0 0 0 0 0 0 0 0 0 0 0 0 0 0 0 0 0 0 0 0 0 0 0 0 0 0 0 0 0 0 0 0 0 0 0 0
0 0 0 0 0 0 0 0 0 0 0 0 0 0 0 0 0 0 0 0 0 0 0 0 0 0 0 0 0 0 0 0 0 0 0 0 0 0 0 0 0 0 0 0 0 0 0 0 0 0 0 0 0 0
0 0 0 0 0 0 0 0 0 0 0 0 0 0 0 0 0 0 0 0 0 0 0 0 0 0 0 0 0 0 0 0 0 0 0 0 0 0 0 0 0 0 0 0 0 0 0 0 0 0 0 0 0 0
0 0 0 0 0 0 0 0 0 0 0 0 0 0 0 0 0 0 0 0 0 0 0 0 0 0 0 0 0 0 0 0 0 0 0 0 0 0 0 0 0 0 0 0 0 0 0 0 0 0 1 1 1 1
0 0 0 0 0 0 0 0 0 0 0 0 0 0 0 0 0 0 0 0 0 0 0 0 0 0 0 0 0 0 0 0 0 0 0 0 0 0 0 0 0 0 1 1 1 0 1 0 1 1 0 1 1 0
0 0 0 0 0 0 0 0 0 0 0 0 0 0 0 0 0 0 0 0 0 0 0 0 0 0 0 0 0 0 0 0 0 0 0 0 0 0 0 0 0 0 1 1 1 1 1 0 0 0 0 0 0 0
0 0 0 0 0 0 0 0 0 0 0 0 0 0 0 0 0 0 0 0 0 0 0 0 0 0 0 0 0 0 0 0 0 0 0 1 1 0 0 0 0 0 0 0 0 0 0 0 0 0 1 0 0 0
0 0 0 0 0 0 0 0 0 0 0 0 0 0 0 0 0 0 0 0 0 0 0 0 0 0 0 0 0 0 0 0 0 0 0 0 0 0 0 0 0 0 0 0 0 0 0 0 0 0 0 0 0 0
0 0 0 0 0 0 0 0 0 0 0 0 0 0 0 0 0 0 0 0 0 0 0 0 0 0 0 0 0 0 0 0 0 0 0 0 0 0 0 0 0 0 0 0 0 0 0 0 0 0 0 0 0 0
0 0 0 0 0 0 0 0 0 0 0 0 0 0 0 0 0 0 0 0 0 0 0 0 0 0 0 0 0 0 0 0 0 0 0 0 0 0 0 0 0 0 -0 0 0 0 0 0 0 0 0 0 0 0
-0 0 -0 -0 0 0 0 0 0 0 0 0 0 0 0 0 0 0 0 0 0 0 0 0 0 0 0 0 0 0 0 0 0 0 0 0 0 0 0 0 -0 -0 -0 0 0 0 0 0 0 0 0 0 0 0
0 -0 -0 0 0 0 0 0 0 0 0 0 0 0 0 0 0 0 0 0 0 0 0 0 0 0 0 0 0 0 0 0 0 -0 -0 0 0 0 -0 0 -0 0 0 0 0 0 0 0 0 0 0 0 0 0
-0 -0 0 0 0 0 0 0 0 0 0 0 0 0 0 0 0 0 0 0 -0 0 0 0 -0 0 -0 0 0 0 0 0 -0 0 0 0 0 0 0 0 0 0 0 0 0 0 0 0 0 0 0 0 0 0
-0 0 0 0 0 0 0 -0 -0 -0 -0 -0 -0 -0 0 0 0 0 0 0 0 0 -0 0 -0 -0 0 0 -0 0 0 0 0 0 0 0 0 0 0 0 0 0 0 0 0 0 0 0 0 0 0 0 0 0
0 0 0 0 0 0 0 0 0 0 -0 -0 -0 -0 -0 -0 0 -0 0 0 0 0 0 0 -0 0 0 -0 0 0 0 0 0 0 0 0 0 0 0 0 0 0 0 0 0 0 0 0 0 0 0 0 0 0
0 0 0 0 0 0 0 0 0 0 0 0 0 0 -0 -0 -0 0 0 0 0 0 0 0 0 0 0 0 0 0 0 0 0 0 0 0 0 0 0 0 0 0 0 0 0 0 0 0 0 0 0 0 0 0
0 0 0 0 0 -0 0 0 -0 -0 0 0 0 0 0 0 0 0 0 0 -0 -0 0 0 0 0 0 0 0 0 0 0 0 0 0 0 0 0 0 0 0 0 0 0 0 0 0 0 0 0 0 0 0 0
0 0 0 0 0 0 0 0 0 0 0 0 0 0 0 0 0 0 0 0 -0 0 -0 -0 -0 0 0 0 0 0 0 0 0 0 0 0 0 0 0 0 0 0 0 0 0 0 0 0 0 0 0 0 0 0
0 0 0 0 0 0 0 0 0 0 0 0 0 0 0 0 0 0 0 0 0 0 -0 -0 -0 -0 -0 0 0 0 0 0 0 0 0 0 0 0 0 0 0 0 0 0 0 0 0 0 0 0 0 0 0 0
0 0 0 0 0 0 0 0 0 0 0 0 0 0 0 0 0 0 0 -0 -0 -0 0 -0 -0 0 -0 -0 -0 0 0 0 0 0 0 0 0 0 0 0 0 0 0 0 0 0 0 0 0 0 0 0 0 0
0 0 0 0 0 0 0 0 0 0 0 -0 -0 0 0 0 -0 0 0 0 0 0 0 0 0 0 0 0 0 0 0 0 0 0 0 0 0 0 0 0 0 0 0 0 0 0 0 0 0 0 0 0 0 0
0 0 0 0 0 0 0 0 0 0 0 0 0 0 0 0 0 0 -0 -0 0 0 0 0 0 0 0 0 0 0 0 0 0 0 0 0 0 0 0 0 0 0 0 0 0 0 0 0 0 0 0 0 0 0
0 0 0 0 0 0 0 0 0 0 0 0 0 0 0 0 0 0 0 -0 0 0 0 0 0 0 0 0 0 0 0 0 0 0 0 0 0 0 0 0 0 0 0 0 0 0 0 0 0 0 0 0 0 0
Wind_Speed_500mb
79 81 80 71 64 55 50 45 39 32 26 22 19 17 16 15 15 16 15 15 13 8 9 9 8 9 6 6 7 9 8 7 10 11 10 10 14 10 9 7 9 14 13 14 6 14 22 8 12 15 15 7 3 15
77 84 80 73 63 56 51 44 37 31 25 21 18 17 16 16 15 15 6 14 13 9 9 16 23 25 16 8 5 5 6 5 8 8 4 4 12 8 11 20 6 12 8 11 7 15 4 3 30 15 18 17 8 13
90 90 80 69 63 57 50 42 35 29 23 19 17 16 15 16 16 17 15 13 8 8 16 15 19 21 32 34 21 10 3 3 2 5 8 4 10 5 16 19 9 9 7 9 5 15 12 21 21 28 30 33 26 17
90 82 70 67 62 56 48 41 33 27 21 17 14 14 13 14 16 17 16 16 12 5 9 5 10 11 17 24 33 34 10 3 4 10 8 6 8 3 10 8 13 9 14 12 14 24 18 5 10 17 25 25 28 34
82 74 73 67 60 52 45 37 30 25 19 15 13 12 12 11 13 15 16 17 17 7 8 6 14 17 23 20 18 21 28 24 13 9 11 10 11 7 18 10 18 22 23 18 20 13 9 22 21 34 31 24 20 23
76 73 68 61 54 47 40 34 28 23 19 15 12 10 10 9 11 9 4 15 18 15 5 6 4 5 7 14 26 27 21 17 20 14 16 18 18 10 11 22 34 35 25 21 20 7 28 42 46 38 22 22 26 24
73 68 61 54 47 41 35 28 23 19 16 13 10 8 8 9 17 8 4 9 20 17 3 9 6 6 7 10 13 20 25 19 21 22 21 33 28 13 18 29 41 31 34 27 28 41 46 43 34 36 36 36 34 32
69 60 53 46 40 34 28 23 19 17 14 11 7 8 12 15 19 7 6 12 23 6 3 6 4 8 4 12 14 19 18 22 19 24 21 28 31 30 17 46 49 55 56 57 57 46 46 48 40 40 41 43 44 43
57 52 46 40 34 29 24 19 16 14 12 10 15 20 22 15 8 9 14 15 14 5 5 6 5 6 3 7 6 12 16 12 16 18 29 22 21 19 24 41 48 54 54 57 52 47 39 42 52 54 52 52 52 53
51 46 41 35 29 24 20 17 15 13 14 21 27 6 8 8 22 25 7 5 4 6 7 9 4 5 9 1 10 7 14 11 12 17 19 24 29 58 63 60 61 55 51 50 50 51 53 53 49 47 48 49 48 49
47 43 37 32 26 21 16 14 13 17 23 17 7 5 19 24 12 6 8 10 9 7 10 9 12 13 5 8 4 5 4 6 9 12 11 11 17 30 42 52 54 50 50 50 48 48 46 45 45 48 49 47 45 45
43 38 33 28 23 18 14 11 11 18 14 15 17 24 21 6 5 7 9 8 9 5 10 5 2 6 5 7 10 8 7 7 12 9 8 9 12 10 14 14 16 18 23 29 30 33 34 34 32 35 38 41 42 41
39 35 29 25 21 17 14 13 15 22 29 23 7 6 6 7 5 10 13 7 7 10 5 0 3 4 6 9 10 7 10 13 2 10 15 13 9 5 9 10 12 8 10 9 8 10 13 15 17 18 23 23 26 25
35 29 25 21 18 15 12 12 13 20 9 3 4 3 7 8 7 5 4 6 13 2 2 6 10 7 7 9 10 8 10 8 12 19 21 15 13 13 17 15 13 13 15 14 11 12 13 14 16 18 20 20 19 16
31 26 23 19 14 13 10 9 9 9 4 3 3 6 8 3 7 8 5 8 4 3 7 11 15 13 9 9 8 10 8 12 10 17 15 20 17 16 15 14 13 14 16 16 17 15 14 15 17 17 21 19 14 9
27 26 23 18 13 10 7 6 6 6 2 2 5 6 7 7 12 13 12 11 6 6 9 8 9 8 12 8 15 17 9 9 4 9 13 12 15 15 17 17 16 15 17 18 16 18 18 16 17 15 15 14 13 11
16 18 17 15 14 13 7 6 5 4 2 2 5 11 14 8 12 8 17 12 7 10 9 9 10 20 11 14 23 10 18 18 24 19 18 19 19 20 21 20 19 18 17 17 18 18 17 15 12 6 4 2 4 6
16 13 10 11 13 11 11 4 3 2 5 8 10 9 13 15 16 16 15 19 12 8 5 6 7 10 12 24 22 17 22 34 17 16 18 24 26 25 23 26 26 22 21 19 18 18 15 13 11 7 7 6 9 14
11 9 8 7 12 4 1 2 1 5 10 10 19 20 19 23 25 28 28 20 21 14 6 7 12 8 21 38 42 42 35 26 28 32 28 27 23 26 30 30 28 24 20 18 15 11 6 11 9 12 16 20 25 24
5 3 1 6 9 3 2 3 3 6 8 5 17 19 21 26 24 26 36 35 33 25 15 9 13 33 40 36 37 36 35 30 29 32 30 26 26 35 35 31 26 20 13 10 10 7 9 14 14 9 6 9 16 31
5 3 5 7 7 3 4 4 7 7 10 11 13 17 19 22 26 29 34 39 37 20 27 40 48 47 40 46 44 40 42 35 36 30 27 36 32 44 45 33 22 17 12 3 9 18 12 15 23 36 44 41 27 23
2 7 4 5 3 4 5 7 8 9 10 16 26 19 17 19 23 28 24 30 33 51 55 48 41 37 40 45 40 38 39 42 42 39 45 38 34 31 36 27 25 25 18 12 10 11 16 22 23 31 30 29 28 28
5 11 5 3 3 3 8 4 6 6 7 6 6 9 9 10 7 4 9 18 33 41 43 45 44 41 42 40 39 42 41 38 38 38 36 31 29 24 22 18 26 26 16 12 18 19 22 24 21 23 23 24 28 26
13 5 3 3 6 6 5 8 10 9 8 8 7 9 8 6 6 11 11 23 22 18 18 21 22 28 30 30 32 34 30 26 29 28 29 30 22 24 18 22 19 25 26 19 13 21 30 33 32 30 28 24 23 21
5 4 5 8 8 7 7 7 7 8 9 11 11 14 7 5 6 7 12 8 3 12 14 25 33 31 28 30 29 28 19 17 19 20 12 3 5 8 7 8 12 18 17 22 28 32 38 31 28 28 24 21 21 20
6 8 11 8 7 9 6 6 7 6 7 6 9 10 7 7 7 5 11 24 22 22 26 28 29 29 27 20 11 11 7 9 11 13 14 15 18 24 34 37 38 36 27 24 27 29 36 28 25 25 24 20 18 19
6 7 12 13 10 9 7 11 10 8 7 7 7 6 4 7 5 5 13 28 26 28 29 24 17 12 17 15 13 13 15 20 30 40 38 36 34 29 25 26 23 21 16 18 16 15 15 13 7 3 5 11 14 15
11 10 7 8 8 10 7 6 5 5 5 8 6 5 4 5 3 9 9 27 31 35 41 46 40 31 29 30 28 33 40 40 34 24 25 30 27 26 23 18 15 10 6 4 5 6 4 5 9 12 14 16 18 17
12 13 8 14 11 8 8 7 7 9 9 5 5 2 5 5 26 17 17 24 30 38 40 43 44 40 39 40 38 33 28 28 30 25 23 22 15 14 11 13 14 16 17 15 13 11 9 11 14 15 16 16 15 14
10 9 8 8 5 4 5 7 10 19 6 4 4 13 24 34 28 22 20 23 23 20 22 22 18 17 19 22 20 17 16 17 17 13 9 9 10 12 14 16 16 15 15 14 12 14 15 15 15 16 16 15 13 13
8 7 9 3 2 6 7 5 6 17 25 24 19 15 8 8 20 22 31 27 23 21 21 22 24 24 21 18 15 15 17 18 16 13 14 14 13 13 12 13 13 12 12 12 12 12 12 14 14 14 14 13 14 13
5 8 13 7 4 2 6 5 4 4 5 6 10 6 6 5 5 8 11 12 15 19 21 20 20 22 20 19 20 19 18 15 16 16 15 13 13 12 11 11 11 11 12 13 14 13 14 13 12 12 12 12 13 14
8 14 18 15 8 6 7 4 3 6 8 5 10 14 13 11 10 6 12 14 11 11 8 13 15 16 17 17 18 18 19 19 19 19 19 18 17 17 13 11 11 12 12 13 13 14 14 14 12 12 13 13 13 13
Wind_Direction_500mb
198 189 187 192 193 194 192 191 191 194 196 198 197 199 201 201 194 192 210 199 182 240 254 224 234 228 234 245 275 31 251 197 240 246 248 200 257 190 251 258 214 236 237 237 219 268 282 58 159 241 2 339 266 212
186 185 187 186 187 184 184 183 184 185 189 193 193 196 197 198 195 194 207 210 208 226 264 250 237 229 236 246 299 299 336 323 357 271 219 302 223 195 273 244 152 237 280 300 272 306 47 237 252 262 281 294 306 276
184 184 175 178 177 176 175 177 178 179 184 190 192 198 196 198 200 199 205 211 216 263 271 254 255 249 238 239 235 254 172 352 63 30 325 321 262 285 240 235 266 185 197 243 281 269 273 285 292 269 277 266 280 279
184 165 167 171 169 169 170 172 173 176 181 190 198 204 203 203 204 202 197 205 191 251 274 171 251 247 234 232 235 227 224 336 267 310 285 272 269 228 259 312 260 328 160 238 255 266 290 136 12 350 329 300 279 269
154 158 165 164 164 165 167 169 172 176 182 191 204 215 216 210 202 205 212 213 207 167 324 287 281 255 241 231 215 219 224 229 250 266 236 241 265 249 228 293 249 212 252 239 273 12 305 297 313 320 312 311 302 285
151 158 158 158 160 161 164 166 170 176 182 191 204 215 219 203 184 159 227 233 214 205 281 272 278 205 212 215 211 212 208 209 217 229 252 249 250 271 263 250 256 259 244 251 261 278 301 292 297 299 282 297 300 288
153 153 155 156 156 157 160 164 169 174 177 183 194 201 192 175 160 177 215 235 190 168 267 271 224 195 196 199 193 196 208 213 221 234 236 251 250 215 256 254 251 251 250 245 273 296 290 287 296 293 290 299 301 292
150 150 151 151 152 153 157 162 167 169 172 176 171 154 144 144 140 111 126 138 154 139 243 275 262 212 180 198 195 197 201 207 219 234 242 246 251 232 252 251 256 256 262 269 275 277 273 278 286 286 289 292 289 287
145 145 145 144 147 150 153 157 161 161 166 159 138 125 114 121 127 164 131 130 144 130 272 247 263 108 301 215 206 182 201 215 221 229 231 236 229 228 240 253 254 255 257 266 272 274 270 273 283 287 287 289 286 286
141 140 140 140 141 141 145 149 152 159 152 141 138 107 134 152 129 127 106 124 174 216 236 258 246 249 329 339 191 221 199 242 216 216 237 231 248 251 251 257 265 264 264 270 273 271 277 282 283 285 286 285 282 279
137 136 133 130 132 135 137 141 147 148 144 146 141 127 150 138 122 154 162 201 162 222 213 249 275 278 283 292 339 248 291 264 247 199 217 227 237 244 250 257 263 267 265 263 262 265 269 273 280 286 289 290 290 290
127 122 123 128 126 126 126 122 138 163 169 162 131 124 132 145 171 199 183 163 217 220 163 251 11 268 242 239 262 234 259 231 249 121 236 249 256 285 279 277 288 281 269 263 261 261 268 278 286 288 291 296 300 299
120 119 119 121 120 118 110 98 118 137 131 125 95 136 161 160 180 200 180 180 183 166 112 243 205 235 211 222 240 258 242 243 275 233 236 253 94 61 0 350 346 337 328 311 294 283 287 301 312 323 328 332 330 333
117 114 107 104 100 95 93 87 112 134 99 137 164 123 213 171 213 180 185 76 82 169 264 297 276 221 210 207 237 240 242 271 249 247 244 248 41 339 322 328 323 325 337 335 336 344 339 334 338 343 350 346 346 349
110 103 99 92 86 78 77 83 99 136 98 132 171 176 192 155 162 174 146 171 146 297 324 306 265 229 219 237 224 241 232 235 241 260 261 26 355 353 347 350 346 340 335 335 346 346 349 349 351 355 350 355 0 23
107 102 85 76 64 58 69 81 85 99 76 150 205 219 190 239 205 206 233 220 221 284 300 260 271 263 231 230 210 221 238 235 13 10 351 335 354 348 345 348 351 343 345 347 346 350 354 356 0 3 14 36 56 87
108 95 84 63 42 33 34 72 63 52 69 302 230 243 257 283 271 243 209 224 231 265 249 254 244 221 259 229 232 243 250 275 338 335 338 350 344 340 341 340 341 342 337 335 343 343 341 345 348 4 31 73 155 194
98 96 63 33 18 16 21 59 38 310 268 243 253 258 243 252 265 240 226 219 215 208 230 272 297 251 241 246 248 245 275 291 283 309 339 338 340 339 339 339 341 340 341 343 339 334 326 322 319 291 252 295 303 309
104 111 106 46 22 43 39 336 1 268 247 258 261 266 265 262 254 245 235 231 225 223 196 228 243 236 240 262 277 295 322 323 312 301 305 335 332 336 334 330 332 334 334 334 333 341 334 296 264 252 275 273 275 275
112 148 22 356 5 332 264 205 237 257 263 282 272 271 264 260 260 245 232 226 223 233 224 229 232 254 272 276 292 301 303 291 300 316 308 298 323 322 322 318 309 313 316 346 0 49 57 66 55 53 69 81 104 104
61 294 285 314 309 290 255 243 236 239 276 258 276 294 272 258 236 232 222 214 211 222 232 241 255 265 263 277 272 275 289 294 274 277 292 302 302 297 308 297 287 294 279 202 132 118 114 98 103 109 118 120 106 107
276 340 321 291 282 279 282 246 263 294 269 275 288 263 268 259 248 231 218 212 223 233 237 245 255 249 265 276 272 272 276 277 285 280 280 285 289 299 304 302 292 270 259 243 189 154 140 138 137 144 141 134 131 127
326 330 323 293 297 294 283 257 264 242 251 256 264 255 229 241 259 174 221 217 239 246 247 251 260 264 263 267 273 271 269 270 276 284 285 279 274 285 281 287 267 270 239 216 187 189 170 156 153 139 130 124 119 116
329 320 301 266 232 261 254 234 223 257 251 246 235 261 269 272 238 235 245 253 260 271 266 267 275 275 271 270 278 272 263 257 266 274 281 277 267 275 259 256 254 241 231 218 198 169 157 155 159 146 124 122 118 113
295 243 210 257 220 228 256 247 233 241 245 251 277 274 265 258 257 251 257 266 303 312 297 289 288 283 279 280 274 261 261 262 266 269 255 188 143 122 124 152 145 130 132 157 142 130 111 110 117 116 120 114 108 100
257 216 202 212 216 217 237 260 228 261 288 272 258 278 301 291 262 277 15 347 315 313 310 301 293 294 297 279 221 221 246 245 226 185 154 149 147 140 119 111 98 87 97 105 121 117 113 97 96 98 94 91 93 84
265 254 224 235 264 284 291 277 290 274 258 254 275 295 279 239 258 351 349 358 341 333 331 324 310 282 247 248 227 206 177 165 138 115 109 107 99 94 95 90 84 81 76 82 95 86 85 96 92 70 106 105 94 95
246 266 239 250 260 250 268 276 259 245 243 243 268 243 284 341 312 345 62 51 70 72 64 66 71 79 90 97 103 114 113 104 102 103 101 91 88 87 81 71 69 68 52 31 65 96 116 130 121 108 97 91 87 80
247 243 232 266 254 242 234 233 254 249 245 263 310 305 299 338 43 118 109 74 65 61 59 55 61 69 77 74 76 77 82 81 80 76 75 73 63 58 87 98 89 92 97 106 112 104 94 99 104 108 99 92 86 78
258 226 214 228 223 243 286 255 271 356 344 219 121 94 77 67 76 99 105 73 62 51 38 39 39 41 49 48 55 63 61 62 73 71 55 71 87 89 89 88 86 85 89 87 84 82 75 83 80 82 84 78 72 63
263 239 253 267 221 226 209 140 70 43 70 87 94 94 97 75 61 87 79 69 47 50 52 50 50 48 50 51 56 61 62 59 65 79 81 82 91 96 93 89 86 85 91 93 95 95 93 89 86 83 79 73 65 62
317 348 345 328 327 180 215 258 322 40 78 81 67 113 108 92 88 48 33 30 40 45 55 55 52 49 52 55 60 66 77 69 64 63 65 72 82 87 87 87 83 91 95 96 94 93 91 91 85 80 65 54 43 35
338 2 0 345 336 7 350 284 323 72 38 50 61 54 50 50 64 57 46 43 40 26 48 60 63 55 53 65 63 63 65 66 67 66 63 67 78 91 78 78 87 91 93 94 94 89 86 82 74 63 52 42 28 25
Wind_Speed_850mb
79 81 80 71 64 55 50 45 39 32 26 22 19 17 16 15 15 16 15 15 13 8 9 9 8 9 6 6 7 9 8 7 10 11 10 10 14 10 9 7 9 14 13 14 6 14 22 8 12 15 15 7 3 15
77 84 80 73 63 56 51 44 37 31 25 21 18 17 16 16 15 15 6 14 13 9 9 16 23 25 16 8 5 5 6 5 8 8 4 4 12 8 11 20 6 12 8 11 7 15 4 3 30 15 18 17 8 13
90 90 80 69 63 57 50 42 35 29 23 19 17 16 15 16 16 17 15 13 8 8 16 15 19 21 32 34 21 10 3 3 2 5 8 4 10 5 16 19 9 9 7 9 5 15 12 21 21 28 30 33 26 17
90 82 70 67 62 56 48 41 33 27 21 17 14 14 13 14 16 17 16 16 12 5 9 5 10 11 17 24 33 34 10 3 4 10 8 6 8 3 10 8 13 9 14 12 14 24 18 5 10 17 25 25 28 34
82 74 73 67 60 52 45 37 30 25 19 15 13 12 12 11 13 15 16 17 17 7 8 6 14 17 23 20 18 21 28 24 13 9 11 10 11 7 18 10 18 22 23 18 20 13 9 22 21 34 31 24 20 23
76 73 68 61 54 47 40 34 28 23 19 15 12 10 10 9 11 9 4 15 18 15 5 6 4 5 7 14 26 27 21 17 20 14 16 18 18 10 11 22 34 35 25 21 20 7 28 42 46 38 22 22 26 24
73 68 61 54 47 41 35 28 23 19 16 13 10 8 8 9 17 8 4 9 20 17 3 9 6 6 7 10 13 20 25 19 21 22 21 33 28 13 18 29 41 31 34 27 28 41 46 43 34 36 36 36 34 32
69 60 53 46 40 34 28 23 19 17 14 11 7 8 12 15 19 7 6 12 23 6 3 6 4 8 4 12 14 19 18 22 19 24 21 28 31 30 17 46 49 55 56 57 57 46 46 48 40 40 41 43 44 43
57 52 46 40 34 29 24 19 16 14 12 10 15 20 22 15 8 9 14 15 14 5 5 6 5 6 3 7 6 12 16 12 16 18 29 22 21 19 24 41 48 54 54 57 52 47 39 42 52 54 52 52 52 53
51 46 41 35 29 24 20 17 15 13 14 21 27 6 8 8 22 25 7 5 4 6 7 9 4 5 9 1 10 7 14 11 12 17 19 24 29 58 63 60 61 55 51 50 50 51 53 53 49 47 48 49 48 49
47 43 37 32 26 21 16 14 13 17 23 17 7 5 19 24 12 6 8 10 9 7 10 9 12 13 5 8 4 5 4 6 9 12 11 11 17 30 42 52 54 50 50 50 48 48 46 45 45 48 49 47 45 45
43 38 33 28 23 18 14 11 11 18 14 15 17 24 21 6 5 7 9 8 9 5 10 5 2 6 5 7 10 8 7 7 12 9 8 9 12 10 14 14 16 18 23 29 30 33 34 34 32 35 38 41 42 41
39 35 29 25 21 17 14 13 15 22 29 23 7 6 6 7 5 10 13 7 7 10 5 0 3 4 6 9 10 7 10 13 2 10 15 13 9 5 9 10 12 8 10 9 8 10 13 15 17 18 23 23 26 25
35 29 25 21 18 15 12 12 13 20 9 3 4 3 7 8 7 5 4 6 13 2 2 6 10 7 7 9 10 8 10 8 12 19 21 15 13 13 17 15 13 13 15 14 11 12 13 14 16 18 20 20 19 16
31 26 23 19 14 13 10 9 9 9 4 3 3 6 8 3 7 8 5 8 4 3 7 11 15 13 9 9 8 10 8 12 10 17 15 20 17 16 15 14 13 14 16 16 17 15 14 15 17 17 21 19 14 9
27 26 23 18 13 10 7 6 6 6 2 2 5 6 7 7 12 13 12 11 6 6 9 8 9 8 12 8 15 17 9 9 4 9 13 12 15 15 17 17 16 15 17 18 16 18 18 16 17 15 15 14 13 11
16 18 17 15 14 13 7 6 5 4 2 2 5 11 14 8 12 8 17 12 7 10 9 9 10 20 11 14 23 10 18 18 24 19 18 19 19 20 21 20 19 18 17 17 18 18 17 15 12 6 4 2 4 6
16 13 10 11 13 11 11 4 3 2 5 8 10 9 13 15 16 16 15 19 12 8 5 6 7 10 12 24 22 17 22 34 17 16 18 24 26 25 23 26 26 22 21 19 18 18 15 13 11 7 7 6 9 14
11 9 8 7 12 4 1 2 1 5 10 10 19 20 19 23 25 28 28 20 21 14 6 7 12 8 21 38 42 42 35 26 28 32 28 27 23 26 30 30 28 24 20 18 15 11 6 11 9 12 16 20 25 24
5 3 1 6 9 3 2 3 3 6 8 5 17 19 21 26 24 26 36 35 33 25 15 9 13 33 40 36 37 36 35 30 29 32 30 26 26 35 35 31 26 20 13 10 10 7 9 14 14 9 6 9 16 31
5 3 5 7 7 3 4 4 7 7 10 11 13 17 19 22 26 29 34 39 37 20 27 40 48 47 40 46 44 40 42 35 36 30 27 36 32 44 45 33 22 17 12 3 9 18 12 15 23 36 44 41 27 23
2 7 4 5 3 4 5 7 8 9 10 16 26 19 17 19 23 28 24 30 33 51 55 48 41 37 40 45 40 38 39 42 42 39 45 38 34 31 36 27 25 25 18 12 10 11 16 22 23 31 30 29 28 28
5 11 5 3 3 3 8 4 6 6 7 6 6 9 9 10 7 4 9 18 33 41 43 45 44 41 42 40 39 42 41 38 38 38 36 31 29 24 22 18 26 26 16 12 18 19 22 24 21 23 23 24 28 26
13 5 3 3 6 6 5 8 10 9 8 8 7 9 8 6 6 11 11 23 22 18 18 21 22 28 30 30 32 34 30 26 29 28 29 30 22 24 18 22 19 25 26 19 13 21 30 33 32 30 28 24 23 21
5 4 5 8 8 7 7 7 7 8 9 11 11 14 7 5 6 7 12 8 3 12 14 25 33 31 28 30 29 28 19 17 19 20 12 3 5 8 7 8 12 18 17 22 28 32 38 31 28 28 24 21 21 20
6 8 11 8 7 9 6 6 7 6 7 6 9 10 7 7 7 5 11 24 22 22 26 28 29 29 27 20 11 11 7 9 11 13 14 15 18 24 34 37 38 36 27 24 27 29 36 28 25 25 24 20 18 19
6 7 12 13 10 9 7 11 10 8 7 7 7 6 4 7 5 5 13 28 26 28 29 24 17 12 17 15 13 13 15 20 30 40 38 36 34 29 25 26 23 21 16 18 16 15 15 13 7 3 5 11 14 15
11 10 7 8 8 10 7 6 5 5 5 8 6 5 4 5 3 9 9 27 31 35 41 46 40 31 29 30 28 33 40 40 34 24 25 30 27 26 23 18 15 10 6 4 5 6 4 5 9 12 14 16 18 17
12 13 8 14 11 8 8 7 7 9 9 5 5 2 5 5 26 17 17 24 30 38 40 43 44 40 39 40 38 33 28 28 30 25 23 22 15 14 11 13 14 16 17 15 13 11 9 11 14 15 16 16 15 14
10 9 8 8 5 4 5 7 10 19 6 4 4 13 24 34 28 22 20 23 23 20 22 22 18 17 19 22 20 17 16 17 17 13 9 9 10 12 14 16 16 15 15 14 12 14 15 15 15 16 16 15 13 13
8 7 9 3 2 6 7 5 6 17 25 24 19 15 8 8 20 22 31 27 23 21 21 22 24 24 21 18 15 15 17 18 16 13 14 14 13 13 12 13 13 12 12 12 12 12 12 14 14 14 14 13 14 13
5 8 13 7 4 2 6 5 4 4 5 6 10 6 6 5 5 8 11 12 15 19 21 20 20 22 20 19 20 19 18 15 16 16 15 13 13 12 11 11 11 11 12 13 14 13 14 13 12 12 12 12 13 14
8 14 18 15 8 6 7 4 3 6 8 5 10 14 13 11 10 6 12 14 11 11 8 13 15 16 17 17 18 18 19 19 19 19 19 18 17 17 13 11 11 12 12 13 13 14 14 14 12 12 13 13 13 13
Wind_Direction_850mb
198 189 187 192 193 194 192 191 191 194 196 198 197 199 201 201 194 192 210 199 182 240 254 224 234 228 234 245 275 31 251 197 240 246 248 200 257 190 251 258 214 236 237 237 219 268 282 58 159 241 2 339 266 212
186 185 187 186 187 184 184 183 184 185 189 193 193 196 197 198 195 194 207 210 208 226 264 250 237 229 236 246 299 299 336 323 357 271 219 302 223 195 273 244 152 237 280 300 272 306 47 237 252 262 281 294 306 276
184 184 175 178 177 176 175 177 178 179 184 190 192 198 196 198 200 199 205 211 216 263 271 254 255 249 238 239 235 254 172 352 63 30 325 321 262 285 240 235 266 185 197 243 281 269 273 285 292 269 277 266 280 279
184 165 167 171 169 169 170 172 173 176 181 190 198 204 203 203 204 202 197 205 191 251 274 171 251 247 234 232 235 227 224 336 267 310 285 272 269 228 259 312 260 328 160 238 255 266 290 136 12 350 329 300 279 269
154 158 165 164 164 165 167 169 172 176 182 191 204 215 216 210 202 205 212 213 207 167 324 287 281 255 241 231 215 219 224 229 250 266 236 241 265 249 228 293 249 212 252 239 273 12 305 297 313 320 312 311 302 285
151 158 158 158 160 161 164 166 170 176 182 191 204 215 219 203 184 159 227 233 214 205 281 272 278 205 212 215 211 212 208 209 217 229 252 249 250 271 263 250 256 259 244 251 261 278 301 292 297 299 282 297 300 288
153 153 155 156 156 157 160 164 169 174 177 183 194 201 192 175 160 177 215 235 190 168 267 271 224 195 196 199 193 196 208 213 221 234 236 251 250 215 256 254 251 251 250 245 273 296 290 287 296 293 290 299 301 292
150 150 151 151 152 153 157 162 167 169 172 176 171 154 144 144 140 111 126 138 154 139 243 275 262 212 180 198 195 197 201 207 219 234 242 246 251 232 252 251 256 256 262 269 275 277 273 278 286 286 289 292 289 287
145 145 145 144 147 150 153 157 161 161 166 159 138 125 114 121 127 164 131 130 144 130 272 247 263 108 301 215 206 182 201 215 221 229 231 236 229 228 240 253 254 255 257 266 272 274 270 273 283 287 287 289 286 286
141 140 140 140 141 141 145 149 152 159 152 141 138 107 134 152 129 127 106 124 174 216 236 258 246 249 329 339 191 221 199 242 216 216 237 231 248 251 251 257 265 264 264 270 273 271 277 282 283 285 286 285 282 279
137 136 133 130 132 135 137 141 147 148 144 146 141 127 150 138 122 154 162 201 162 222 213 249 275 278 283 292 339 248 291 264 247 199 217 227 237 244 250 257 263 267 265 263 262 265 269 273 280 286 289 290 290 290
127 122 123 128 126 126 126 122 138 163 169 162 131 124 132 145 171 199 183 163 217 220 163 251 11 268 242 239 262 234 259 231 249 121 236 249 256 285 279 277 288 281 269 263 261 261 268 278 286 288 291 296 300 299
120 119 119 121 120 118 110 98 118 137 131 125 95 136 161 160 180 200 180 180 183 166 112 243 205 235 211 222 240 258 242 243 275 233 236 253 94 61 0 350 346 337 328 311 294 283 287 301 312 323 328 332 330 333
117 114 107 104 100 95 93 87 112 134 99 137 164 123 213 171 213 180 185 76 82 169 264 297 276 221 210 207 237 240 242 271 249 247 244 248 41 339 322 328 323 325 337 335 336 344 339 334 338 343 350 346 346 349
110 103 99 92 86 78 77 83 99 136 98 132 171 176 192 155 162 174 146 171 146 297 324 306 265 229 219 237 224 241 232 235 241 260 261 26 355 353 347 350 346 340 335 335 346 346 349 349 351 355 350 355 0 23
107 102 85 76 64 58 69 81 85 99 76 150 205 219 190 239 205 206 233 220 221 284 300 260 271 263 231 230 210 221 238 235 13 10 351 335 354 348 345 348 351 343 345 347 346 350 354 356 0 3 14 36 56 87
108 95 84 63 42 33 34 72 63 52 69 302 230 243 257 283 271 243 209 224 231 265 249 254 244 221 259 229 232 243 250 275 338 335 338 350 344 340 341 340 341 342 337 335 343 343 341 345 348 4 31 73 155 194
98 96 63 33 18 16 21 59 38 310 268 243 253 258 243 252 265 240 226 219 215 208 230 272 297 251 241 246 248 245 275 291 283 309 339 338 340 339 339 339 341 340 341 343 339 334 326 322 319 291 252 295 303 309
104 111 106 46 22 43 39 336 1 268 247 258 261 266 265 262 254 245 235 231 225 223 196 228 243 236 240 262 277 295 322 323 312 301 305 335 332 336 334 330 332 334 334 334 333 341 334 296 264 252 275 273 275 275
112 148 22 356 5 332 264 205 237 257 263 282 272 271 264 260 260 245 232 226 223 233 224 229 232 254 272 276 292 301 303 291 300 316 308 298 323 322 322 318 309 313 316 346 0 49 57 66 55 53 69 81 104 104
61 294 285 314 309 290 255 243 236 239 276 258 276 294 272 258 236 232 222 214 211 222 232 241 255 265 263 277 272 275 289 294 274 277 292 302 302 297 308 297 287 294 279 202 132 118 114 98 103 109 118 120 106 107
276 340 321 291 282 279 282 246 263 294 269 275 288 263 268 259 248 231 218 212 223 233 237 245 255 249 265 276 272 272 276 277 285 280 280 285 289 299 304 302 292 270 259 243 189 154 140 138 137 144 141 134 131 127
326 330 323 293 297 294 283 257 264 242 251 256 264 255 229 241 259 174 221 217 239 246 247 251 260 264 263 267 273 271 269 270 276 284 285 279 274 285 281 287 267 270 239 216 187 189 170 156 153 139 130 124 119 116
329 320 301 266 232 261 254 234 223 257 251 246 235 261 269 272 238 235 245 253 260 271 266 267 275 275 271 270 278 272 263 257 266 274 281 277 267 275 259 256 254 241 231 218 198 169 157 155 159 146 124 122 118 113
295 243 210 257 220 228 256 247 233 241 245 251 277 274 265 258 257 251 257 266 303 312 297 289 288 283 279 280 274 261 261 262 266 269 255 188 143 122 124 152 145 130 132 157 142 130 111 110 117 116 120 114 108 100
257 216 202 212 216 217 237 260 228 261 288 272 258 278 301 291 262 277 15 347 315 313 310 301 293 294 297 279 221 221 246 245 226 185 154 149 147 140 119 111 98 87 97 105 121 117 113 97 96 98 94 91 93 84
265 254 224 235 264 284 291 277 290 274 258 254 275 295 279 239 258 351 349 358 341 333 331 324 310 282 247 248 227 206 177 165 138 115 109 107 99 94 95 90 84 81 76 82 95 86 85 96 92 70 106 105 94 95
246 266 239 250 260 250 268 276 259 245 243 243 268 243 284 341 312 345 62 51 70 72 64 66 71 79 90 97 103 114 113 104 102 103 101 91 88 87 81 71 69 68 52 31 65 96 116 130 121 108 97 91 87 80
247 243 232 266 254 242 234 233 254 249 245 263 310 305 299 338 43 118 109 74 65 61 59 55 61 69 77 74 76 77 82 81 80 76 75 73 63 58 87 98 89 92 97 106 112 104 94 99 104 108 99 92 86 78
258 226 214 228 223 243 286 255 271 356 344 219 121 94 77 67 76 99 105 73 62 51 38 39 39 41 49 48 55 63 61 62 73 71 55 71 87 89 89 88 86 85 89 87 84 82 75 83 80 82 84 78 72 63
263 239 253 267 221 226 209 140 70 43 70 87 94 94 97 75 61 87 79 69 47 50 52 50 50 48 50 51 56 61 62 59 65 79 81 82 91 96 93 89 86 85 91 93 95 95 93 89 86 83 79 73 65 62
317 348 345 328 327 180 215 258 322 40 78 81 67 113 108 92 88 48 33 30 40 45 55 55 52 49 52 55 60 66 77 69 64 63 65 72 82 87 87 87 83 91 95 96 94 93 91 91 85 80 65 54 43 35
338 2 0 345 336 7 350 284 323 72 38 50 61 54 50 50 64 57 46 43 40 26 48 60 63 55 53 65 63 63 65 66 67 66 63 67 78 91 78 78 87 91 93 94 94 89 86 82 74 63 52 42 28 25